Location: Glen Avon
(34.0117°N, 117.4848°W)
Time: 19:55:31
(UTC+00:00)

SL-19 R/B - Pass Details

Date: 01 August 2021
Orbit: 874 x 1208 km, 100.6° (Epoch: 20 September)

Event Time Altitude Azimuth Distance (km) Brightness Sun altitude
Rises 12:03:37 0° 161° (SSE) 3,463 7.3 -11.6°
Reaches altitude 10° 12:05:56 10° 161° (SSE) 2,543 6.6 -11.2°
Maximum altitude 12:11:34 84° 75° (ENE) 928 4.5 -10.2°
Drops below altitude 10° 12:17:35 10° 346° (NNW) 2,712 7.0 -9.1°
Sets 12:20:07 0° 346° (NNW) 3,709 7.7 -8.6°
